Location: Launois
(49.6535°N, 4.5395°E)
Time: 05:17:29
(UTC+00:00)

ADEOS II - Pass Details

Date: 23 May 2024
Orbit: 796 x 798 km, 98.7° (Epoch: 19 June)

Event Time Altitude Azimuth Distance (km) Brightness Sun altitude
Rises 01:12:35 0° 23° (NNE) 3,313 7.1 -16.7°
Reaches altitude 10° 01:15:14 10° 34° (NE) 2,378 5.8 -16.5°
Maximum altitude 01:19:47 29° 94° (E) 1,425 3.6 -16.2°
Drops below altitude 10° 01:24:17 10° 154° (SSE) 2,362 4.2 -15.9°
Enters shadow 01:24:19 10° 154° (SSE) 2,371 4.2 -15.9°
